Time,TemperatureF,DewpointF,PressureIn,WindDirection,WindDirectionDegrees,WindSpeedMPH,WindSpeedGustMPH,Humidity,HourlyPrecipIn,Conditions,Clouds,dailyrainin,SoftwareType,DateUTC
2013-10-28 10:19:00,80.8,69.7,31.07,West,264,4.0,11.0,69,0.00,,,0.00,Wunderground v.1.15,2013-10-28 14:19:00,
2013-10-28 10:20:00,80.8,69.7,31.07,SSW,205,4.0,11.0,69,0.00,,,0.00,Wunderground v.1.15,2013-10-28 14:20:00,
2013-10-28 10:21:00,80.8,69.2,31.07,WSW,248,4.0,11.0,68,0.00,,,0.00,Wunderground v.1.15,2013-10-28 14:21:00,
2013-10-28 10:22:00,80.9,68.9,31.07,South,181,4.0,11.0,67,0.00,,,0.00,Wunderground v.1.15,2013-10-28 14:22:00,
2013-10-28 10:24:00,81.0,69.0,31.07,West,276,4.0,11.0,67,0.00,,,0.00,Wunderground v.1.15,2013-10-28 14:24:00,
2013-10-28 10:27:00,81.0,69.4,31.07,West,274,4.0,11.0,68,0.00,,,0.00,Wunderground v.1.15,2013-10-28 14:27:00,
2013-10-28 10:33:00,80.8,69.7,31.07,SW,226,4.0,11.0,69,0.00,,,0.00,Wunderground v.1.15,2013-10-28 14:33:00,
2013-10-28 10:38:00,81.1,70.0,31.07,WSW,252,4.0,11.0,69,0.00,,,0.00,Wunderground v.1.15,2013-10-28 14:38:00,
2013-10-28 10:44:00,81.3,70.2,31.07,SSW,198,4.0,11.0,69,0.00,,,0.00,Wunderground v.1.15,2013-10-28 14:44:00,
2013-10-28 10:49:00,81.5,69.9,31.07,SW,226,4.0,11.0,68,0.00,,,0.00,Wunderground v.1.15,2013-10-28 14:49:00,
2013-10-28 10:54:00,81.7,69.7,31.07,SSW,207,4.0,11.0,67,0.00,,,0.00,Wunderground v.1.15,2013-10-28 14:54:00,
2013-10-28 10:59:00,81.8,69.8,31.07,West,269,4.0,11.0,67,0.00,,,0.00,Wunderground v.1.15,2013-10-28 14:59:00,
2013-10-28 11:05:00,81.6,69.1,31.06,West,260,5.0,11.0,66,0.00,,,0.00,Wunderground v.1.15,2013-10-28 15:05:00,
2013-10-28 11:11:00,81.7,69.2,31.06,WSW,252,4.0,11.0,66,0.00,,,0.00,Wunderground v.1.15,2013-10-28 15:11:00,
2013-10-28 11:17:00,82.1,69.6,31.06,West,260,4.0,11.0,66,0.00,,,0.00,Wunderground v.1.15,2013-10-28 15:17:00,
2013-10-28 11:23:00,82.2,69.7,31.06,West,274,4.0,11.0,66,0.00,,,0.00,Wunderground v.1.15,2013-10-28 15:23:00,
2013-10-28 11:28:00,82.6,69.6,31.06,WNW,283,4.0,11.0,65,0.00,,,0.00,Wunderground v.1.15,2013-10-28 15:28:00,
2013-10-28 11:33:00,82.6,69.6,31.06,SW,226,4.0,11.0,65,0.00,,,0.00,Wunderground v.1.15,2013-10-28 15:33:00,
2013-10-28 11:38:00,83.0,69.1,31.06,WSW,250,4.0,11.0,63,0.00,,,0.00,Wunderground v.1.15,2013-10-28 15:38:00,
2013-10-28 11:44:00,82.8,69.4,31.06,West,270,4.0,11.0,64,0.00,,,0.00,Wunderground v.1.15,2013-10-28 15:44:00,
2013-10-28 11:50:00,82.8,69.4,31.06,SSW,197,4.0,4.0,64,0.00,,,0.00,Wunderground v.1.15,2013-10-28 15:50:00,
2013-10-28 11:56:00,82.9,69.5,31.06,West,272,4.0,11.0,64,0.00,,,0.00,Wunderground v.1.15,2013-10-28 15:56:00,
2013-10-28 12:02:00,83.0,70.0,31.06,SE,142,4.0,11.0,65,0.00,,,0.00,Wunderground v.1.15,2013-10-28 16:02:00,
2013-10-28 12:07:00,83.2,68.8,31.06,SSE,162,4.0,11.0,62,0.00,,,0.00,Wunderground v.1.15,2013-10-28 16:07:00,
2013-10-28 12:13:00,83.1,69.7,31.05,West,262,4.0,11.0,64,0.00,,,0.00,Wunderground v.1.15,2013-10-28 16:13:00,
2013-10-28 12:19:00,83.3,68.9,31.05,WNW,283,4.0,11.0,62,0.00,,,0.00,Wunderground v.1.15,2013-10-28 16:19:00,
2013-10-28 12:25:00,82.9,69.0,31.05,SE,143,5.0,11.0,63,0.00,,,0.00,Wunderground v.1.15,2013-10-28 16:25:00,
2013-10-28 12:30:00,83.1,69.2,31.05,West,274,5.0,5.0,63,0.00,,,0.00,Wunderground v.1.15,2013-10-28 16:30:00,
2013-10-28 12:36:00,83.3,69.4,31.05,NW,311,4.0,11.0,63,0.00,,,0.00,Wunderground v.1.15,2013-10-28 16:36:00,
2013-10-28 12:42:00,83.2,68.8,31.05,South,177,5.0,11.0,62,0.00,,,0.00,Wunderground v.1.15,2013-10-28 16:42:00,
2013-10-28 12:48:00,83.3,69.4,31.05,West,275,5.0,11.0,63,0.00,,,0.00,Wunderground v.1.15,2013-10-28 16:48:00,
2013-10-28 12:54:00,83.3,68.9,31.05,West,266,5.0,11.0,62,0.00,,,0.00,Wunderground v.1.15,2013-10-28 16:54:00,
2013-10-28 13:02:00,83.8,70.3,31.05,NW,311,4.0,11.0,64,0.00,,,0.00,Wunderground v.1.15,2013-10-28 17:02:00,
2013-10-28 13:08:00,83.8,69.9,31.04,WNW,283,4.0,11.0,63,0.00,,,0.00,Wunderground v.1.15,2013-10-28 17:08:00,
2013-10-28 13:13:00,83.9,70.0,31.04,SSW,210,4.0,11.0,63,0.00,,,0.00,Wunderground v.1.15,2013-10-28 17:13:00,
2013-10-28 13:19:00,83.6,70.1,31.04,WNW,283,5.0,11.0,64,0.00,,,0.00,Wunderground v.1.15,2013-10-28 17:19:00,
2013-10-28 13:25:00,83.6,70.1,31.03,WNW,283,5.0,11.0,64,0.00,,,0.00,Wunderground v.1.15,2013-10-28 17:25:00,
2013-10-28 13:31:00,83.7,69.8,31.03,SW,231,4.0,11.0,63,0.00,,,0.00,Wunderground v.1.15,2013-10-28 17:31:00,
2013-10-28 13:37:00,83.7,69.8,31.03,West,278,5.0,11.0,63,0.00,,,0.00,Wunderground v.1.15,2013-10-28 17:37:00,
2013-10-28 13:43:00,83.7,70.2,31.03,West,260,5.0,11.0,64,0.00,,,0.00,Wunderground v.1.15,2013-10-28 17:43:00,
2013-10-28 13:49:00,83.6,70.1,31.03,WNW,293,5.0,11.0,64,0.00,,,0.00,Wunderground v.1.15,2013-10-28 17:49:00,
2013-10-28 13:54:00,83.6,70.1,31.02,West,281,5.0,11.0,64,0.00,,,0.00,Wunderground v.1.15,2013-10-28 17:54:00,
2013-10-28 14:00:00,83.9,70.4,31.02,West,271,5.0,11.0,64,0.00,,,0.00,Wunderground v.1.15,2013-10-28 18:00:00,
2013-10-28 14:06:00,83.9,70.4,31.02,WNW,288,5.0,11.0,64,0.00,,,0.00,Wunderground v.1.15,2013-10-28 18:06:00,
2013-10-28 14:12:00,83.7,70.7,31.02,SE,145,5.0,11.0,65,0.00,,,0.00,Wunderground v.1.15,2013-10-28 18:12:00,
2013-10-28 14:17:00,83.4,70.4,31.01,West,259,5.0,11.0,65,0.00,,,0.00,Wunderground v.1.15,2013-10-28 18:17:00,
2013-10-28 14:23:00,83.6,70.6,31.01,WSW,246,5.0,11.0,65,0.00,,,0.00,Wunderground v.1.15,2013-10-28 18:23:00,
2013-10-28 14:29:00,83.5,70.9,31.01,WNW,285,5.0,11.0,66,0.00,,,0.00,Wunderground v.1.15,2013-10-28 18:29:00,
2013-10-28 14:35:00,83.6,71.0,31.01,WNW,288,5.0,11.0,66,0.00,,,0.00,Wunderground v.1.15,2013-10-28 18:35:00,
2013-10-28 14:41:00,84.0,71.4,31.01,West,274,4.0,11.0,66,0.00,,,0.00,Wunderground v.1.15,2013-10-28 18:41:00,
2013-10-28 14:46:00,83.8,71.2,31.00,WSW,239,5.0,11.0,66,0.00,,,0.00,Wunderground v.1.15,2013-10-28 18:46:00,
2013-10-28 14:52:00,83.7,70.7,31.00,SSW,211,5.0,11.0,65,0.00,,,0.00,Wunderground v.1.15,2013-10-28 18:52:00,
2013-10-28 14:58:00,83.5,70.9,31.00,West,263,5.0,11.0,66,0.00,,,0.00,Wunderground v.1.15,2013-10-28 18:58:00,
2013-10-28 15:03:00,83.3,71.2,31.00,WNW,288,5.0,11.0,67,0.00,,,0.00,Wunderground v.1.15,2013-10-28 19:03:00,
2013-10-28 15:09:00,83.3,71.2,31.00,WNW,302,5.0,11.0,67,0.00,,,0.00,Wunderground v.1.15,2013-10-28 19:09:00,
2013-10-28 15:15:00,83.6,71.5,31.00,West,278,4.0,11.0,67,0.00,,,0.00,Wunderground v.1.15,2013-10-28 19:15:00,
2013-10-28 15:21:00,83.7,71.1,31.00,WNW,300,4.0,11.0,66,0.00,,,0.00,Wunderground v.1.15,2013-10-28 19:21:00,
2013-10-28 15:27:00,83.5,70.9,31.00,WNW,285,4.0,11.0,66,0.00,,,0.00,Wunderground v.1.15,2013-10-28 19:27:00,
2013-10-28 15:33:00,83.3,71.2,31.00,WNW,297,5.0,11.0,67,0.00,,,0.00,Wunderground v.1.15,2013-10-28 19:33:00,
2013-10-28 15:39:00,83.2,70.7,31.00,South,177,5.0,11.0,66,0.00,,,0.00,Wunderground v.1.15,2013-10-28 19:39:00,
2013-10-28 15:45:00,83.4,70.8,31.00,WSW,243,5.0,11.0,66,0.00,,,0.00,Wunderground v.1.15,2013-10-28 19:45:00,
2013-10-28 15:50:00,83.2,70.7,31.00,NW,317,5.0,11.0,66,0.00,,,0.00,Wunderground v.1.15,2013-10-28 19:50:00,
2013-10-28 15:56:00,83.2,71.1,31.00,West,272,5.0,11.0,67,0.00,,,0.00,Wunderground v.1.15,2013-10-28 19:56:00,
2013-10-28 16:02:00,83.2,71.1,31.00,WNW,300,4.0,11.0,67,0.00,,,0.00,Wunderground v.1.15,2013-10-28 20:02:00,
2013-10-28 16:08:00,83.4,70.8,31.00,SW,236,4.0,11.0,66,0.00,,,0.00,Wunderground v.1.15,2013-10-28 20:08:00,
2013-10-28 16:13:00,83.3,70.8,31.00,WNW,289,4.0,11.0,66,0.00,,,0.00,Wunderground v.1.15,2013-10-28 20:13:00,
2013-10-28 16:19:00,83.5,70.9,31.00,WSW,238,4.0,11.0,66,0.00,,,0.00,Wunderground v.1.15,2013-10-28 20:19:00,
2013-10-28 16:25:00,83.0,70.9,31.00,WSW,240,4.0,11.0,67,0.00,,,0.00,Wunderground v.1.15,2013-10-28 20:25:00,
2013-10-28 16:31:00,83.2,71.1,31.00,SW,223,4.0,11.0,67,0.00,,,0.00,Wunderground v.1.15,2013-10-28 20:31:00,
2013-10-28 16:37:00,82.9,70.8,31.00,WNW,290,5.0,11.0,67,0.00,,,0.00,Wunderground v.1.15,2013-10-28 20:37:00,
2013-10-28 16:43:00,83.0,71.3,31.01,West,259,5.0,11.0,68,0.00,,,0.00,Wunderground v.1.15,2013-10-28 20:43:00,
2013-10-28 16:49:00,82.7,71.1,31.01,South,190,4.0,11.0,68,0.00,,,0.00,Wunderground v.1.15,2013-10-28 20:49:00,
2013-10-28 16:54:00,82.7,71.1,31.01,WSW,245,4.0,11.0,68,0.00,,,0.00,Wunderground v.1.15,2013-10-28 20:54:00,
2013-10-28 17:00:00,82.7,70.2,31.01,WNW,285,4.0,11.0,66,0.00,,,0.00,Wunderground v.1.15,2013-10-28 21:00:00,
2013-10-28 17:06:00,82.7,71.1,31.01,West,276,4.0,11.0,68,0.00,,,0.00,Wunderground v.1.15,2013-10-28 21:06:00,
2013-10-28 17:12:00,82.5,70.9,31.01,SE,138,4.0,11.0,68,0.00,,,0.00,Wunderground v.1.15,2013-10-28 21:12:00,
2013-10-28 17:17:00,82.5,71.3,31.01,SSW,204,3.0,11.0,69,0.00,,,0.00,Wunderground v.1.15,2013-10-28 21:17:00,
2013-10-28 17:23:00,82.3,70.7,31.01,NW,323,3.0,11.0,68,0.00,,,0.00,Wunderground v.1.15,2013-10-28 21:23:00,
2013-10-28 17:29:00,82.2,70.6,31.01,WNW,288,3.0,11.0,68,0.00,,,0.00,Wunderground v.1.15,2013-10-28 21:29:00,
2013-10-28 17:35:00,81.9,70.7,31.02,WNW,288,4.0,11.0,69,0.00,,,0.00,Wunderground v.1.15,2013-10-28 21:35:00,
2013-10-28 17:41:00,81.6,70.4,31.02,West,262,4.0,7.0,69,0.00,,,0.00,Wunderground v.1.15,2013-10-28 21:41:00,
2013-10-28 17:46:00,81.4,70.7,31.02,SW,218,4.0,11.0,70,0.00,,,0.00,Wunderground v.1.15,2013-10-28 21:46:00,
2013-10-28 17:52:00,81.4,70.2,31.02,West,267,3.0,11.0,69,0.00,,,0.00,Wunderground v.1.15,2013-10-28 21:52:00,
2013-10-28 17:57:00,81.1,70.0,31.02,South,175,3.0,11.0,69,0.00,,,0.00,Wunderground v.1.15,2013-10-28 21:57:00,
2013-10-28 18:02:00,80.9,69.8,31.03,West,274,4.0,11.0,69,0.00,,,0.00,Wunderground v.1.15,2013-10-28 22:02:00,
2013-10-28 18:08:00,80.9,69.8,31.03,WSW,239,4.0,11.0,69,0.00,,,0.00,Wunderground v.1.15,2013-10-28 22:08:00,
2013-10-28 18:14:00,80.5,69.8,31.03,SSE,158,4.0,11.0,70,0.00,,,0.00,Wunderground v.1.15,2013-10-28 22:14:00,
2013-10-28 18:20:00,80.2,69.9,31.03,WNW,293,3.0,11.0,71,0.00,,,0.00,Wunderground v.1.15,2013-10-28 22:20:00,
2013-10-28 18:25:00,79.9,70.1,31.03,WSW,245,3.0,11.0,72,0.00,,,0.00,Wunderground v.1.15,2013-10-28 22:25:00,
2013-10-28 18:31:00,79.7,69.9,31.03,SW,236,3.0,11.0,72,0.00,,,0.00,Wunderground v.1.15,2013-10-28 22:31:00,
2013-10-28 18:37:00,79.4,69.6,31.03,WSW,239,3.0,11.0,72,0.00,,,0.00,Wunderground v.1.15,2013-10-28 22:37:00,
2013-10-28 18:43:00,79.2,69.4,31.03,SSE,168,3.0,11.0,72,0.00,,,0.00,Wunderground v.1.15,2013-10-28 22:43:00,
2013-10-28 18:49:00,79.0,69.6,31.03,South,184,3.0,11.0,73,0.00,,,0.00,Wunderground v.1.15,2013-10-28 22:49:00,
2013-10-28 18:54:00,78.9,69.5,31.02,SSW,205,2.0,11.0,73,0.00,,,0.00,Wunderground v.1.15,2013-10-28 22:54:00,
2013-10-28 19:00:00,78.7,69.3,31.02,South,174,2.0,11.0,73,0.00,,,0.00,Wunderground v.1.15,2013-10-28 23:00:00,
2013-10-28 19:06:00,78.6,69.2,31.03,WSW,240,2.0,11.0,73,0.00,,,0.00,Wunderground v.1.15,2013-10-28 23:06:00,
2013-10-28 19:11:00,78.5,69.1,31.03,SSW,201,2.0,11.0,73,0.00,,,0.00,Wunderground v.1.15,2013-10-28 23:11:00,
2013-10-28 19:17:00,78.4,69.0,31.03,NW,316,2.0,11.0,73,0.00,,,0.00,Wunderground v.1.15,2013-10-28 23:17:00,
2013-10-28 19:23:00,78.3,68.9,31.03,SE,139,2.0,11.0,73,0.00,,,0.00,Wunderground v.1.15,2013-10-28 23:23:00,
2013-10-28 19:28:00,78.2,69.2,31.04,South,184,1.0,11.0,74,0.00,,,0.00,Wunderground v.1.15,2013-10-28 23:28:00,
2013-10-28 19:34:00,78.0,69.0,31.04,SSE,152,1.0,11.0,74,0.00,,,0.00,Wunderground v.1.15,2013-10-28 23:34:00,
2013-10-28 19:39:00,77.9,69.3,31.04,SW,221,2.0,11.0,75,0.00,,,0.00,Wunderground v.1.15,2013-10-28 23:39:00,
2013-10-28 19:45:00,77.8,69.2,31.04,SE,142,2.0,11.0,75,0.00,,,0.00,Wunderground v.1.15,2013-10-28 23:45:00,
2013-10-28 19:50:00,77.7,69.1,31.04,SSE,167,1.0,11.0,75,0.00,,,0.00,Wunderground v.1.15,2013-10-28 23:50:00,
2013-10-28 19:55:00,77.7,69.5,31.04,South,170,2.0,11.0,76,0.00,,,0.00,Wunderground v.1.15,2013-10-28 23:55:00,
2013-10-28 20:01:00,77.6,69.4,31.05,SE,146,2.0,11.0,76,0.00,,,0.00,Wunderground v.1.15,2013-10-29 00:01:00,
2013-10-28 20:07:00,77.5,69.3,31.05,SSE,148,2.0,11.0,76,0.00,,,0.00,Wunderground v.1.15,2013-10-29 00:07:00,
2013-10-28 20:13:00,77.5,68.9,31.05,SSE,155,2.0,11.0,75,0.00,,,0.00,Wunderground v.1.15,2013-10-29 00:13:00,
2013-10-28 20:18:00,77.4,69.2,31.05,SSE,150,1.0,11.0,76,0.00,,,0.00,Wunderground v.1.15,2013-10-29 00:18:00,
2013-10-28 20:24:00,77.3,69.1,31.05,South,176,1.0,11.0,76,0.00,,,0.00,Wunderground v.1.15,2013-10-29 00:24:00,
2013-10-28 20:30:00,77.3,69.5,31.05,SSW,197,1.0,11.0,77,0.00,,,0.00,Wunderground v.1.15,2013-10-29 00:30:00,
2013-10-28 20:36:00,77.2,69.4,31.05,SW,231,1.0,11.0,77,0.00,,,0.00,Wunderground v.1.15,2013-10-29 00:36:00,
2013-10-28 20:41:00,77.2,69.4,31.05,SSE,166,2.0,3.0,77,0.00,,,0.00,Wunderground v.1.15,2013-10-29 00:41:00,
2013-10-28 20:47:00,77.2,69.4,31.06,ENE,72,2.0,11.0,77,0.00,,,0.00,Wunderground v.1.15,2013-10-29 00:47:00,
2013-10-28 20:53:00,77.2,69.4,31.06,SE,143,1.0,11.0,77,0.00,,,0.00,Wunderground v.1.15,2013-10-29 00:53:00,
2013-10-28 20:59:00,77.1,69.3,31.06,SSE,158,1.0,11.0,77,0.00,,,0.00,Wunderground v.1.15,2013-10-29 00:59:00,
2013-10-28 21:04:00,77.0,69.2,31.06,SSE,153,1.0,11.0,77,0.00,,,0.00,Wunderground v.1.15,2013-10-29 01:04:00,
2013-10-28 21:10:00,77.0,69.2,31.06,SE,139,1.0,11.0,77,0.00,,,0.00,Wunderground v.1.15,2013-10-29 01:10:00,
2013-10-28 21:16:00,76.9,69.5,31.06,South,173,1.0,11.0,78,0.00,,,0.00,Wunderground v.1.15,2013-10-29 01:16:00,
2013-10-28 21:21:00,76.8,69.4,31.06,SSW,203,1.0,11.0,78,0.00,,,0.00,Wunderground v.1.15,2013-10-29 01:21:00,
2013-10-28 21:27:00,76.9,69.5,31.06,South,177,1.0,11.0,78,0.00,,,0.00,Wunderground v.1.15,2013-10-29 01:27:00,
2013-10-28 21:33:00,76.8,69.0,31.07,SSE,150,1.0,11.0,77,0.00,,,0.00,Wunderground v.1.15,2013-10-29 01:33:00,
2013-10-28 21:39:00,76.8,69.0,31.07,SSE,164,1.0,11.0,77,0.00,,,0.00,Wunderground v.1.15,2013-10-29 01:39:00,
2013-10-28 21:45:00,76.9,68.8,31.07,SSW,197,1.0,11.0,76,0.00,,,0.00,Wunderground v.1.15,2013-10-29 01:45:00,
2013-10-28 21:50:00,76.9,68.8,31.07,SSE,150,1.0,11.0,76,0.00,,,0.00,Wunderground v.1.15,2013-10-29 01:50:00,
2013-10-28 21:56:00,76.9,68.8,31.07,SSW,197,1.0,11.0,76,0.00,,,0.00,Wunderground v.1.15,2013-10-29 01:56:00,
2013-10-28 22:02:00,77.0,68.9,31.07,WSW,246,1.0,3.0,76,0.00,,,0.00,Wunderground v.1.15,2013-10-29 02:02:00,
2013-10-28 22:08:00,77.1,68.9,31.07,SW,221,1.0,11.0,76,0.00,,,0.00,Wunderground v.1.15,2013-10-29 02:08:00,
2013-10-28 22:14:00,77.2,69.0,31.07,WSW,243,2.0,11.0,76,0.00,,,0.00,Wunderground v.1.15,2013-10-29 02:14:00,
2013-10-28 22:19:00,77.1,68.9,31.07,South,183,1.0,11.0,76,0.00,,,0.00,Wunderground v.1.15,2013-10-29 02:19:00,
2013-10-28 22:25:00,77.0,68.9,31.07,SE,146,1.0,11.0,76,0.00,,,0.00,Wunderground v.1.15,2013-10-29 02:25:00,
2013-10-28 22:31:00,77.0,68.9,31.07,South,174,1.0,11.0,76,0.00,,,0.00,Wunderground v.1.15,2013-10-29 02:31:00,
2013-10-28 22:36:00,77.0,68.9,31.07,SSE,164,1.0,11.0,76,0.00,,,0.00,Wunderground v.1.15,2013-10-29 02:36:00,
2013-10-28 22:42:00,77.0,68.9,31.07,SSE,162,1.0,11.0,76,0.00,,,0.00,Wunderground v.1.15,2013-10-29 02:42:00,
2013-10-28 22:48:00,77.0,68.9,31.07,SSE,150,1.0,11.0,76,0.00,,,0.00,Wunderground v.1.15,2013-10-29 02:48:00,
2013-10-28 22:54:00,76.8,68.7,31.07,SSE,158,1.0,11.0,76,0.00,,,0.00,Wunderground v.1.15,2013-10-29 02:54:00,
2013-10-28 23:01:00,76.7,68.9,31.07,SSE,152,1.0,11.0,77,0.00,,,0.00,Wunderground v.1.15,2013-10-29 03:01:00,
2013-10-28 23:06:00,76.8,69.0,31.07,SSE,150,1.0,11.0,77,0.00,,,0.00,Wunderground v.1.15,2013-10-29 03:06:00,
2013-10-28 23:11:00,76.7,68.9,31.07,SSE,162,1.0,11.0,77,0.00,,,0.00,Wunderground v.1.15,2013-10-29 03:11:00,
2013-10-28 23:17:00,76.7,68.9,31.07,SE,135,1.0,11.0,77,0.00,,,0.00,Wunderground v.1.15,2013-10-29 03:17:00,
2013-10-28 23:23:00,76.6,68.8,31.07,South,181,1.0,11.0,77,0.00,,,0.00,Wunderground v.1.15,2013-10-29 03:23:00,
2013-10-28 23:28:00,76.6,68.8,31.07,SSE,166,1.0,11.0,77,0.00,,,0.00,Wunderground v.1.15,2013-10-29 03:28:00,
2013-10-28 23:33:00,76.5,68.7,31.07,SSE,158,1.0,11.0,77,0.00,,,0.00,Wunderground v.1.15,2013-10-29 03:33:00,
2013-10-28 23:39:00,76.5,68.7,31.07,SSE,167,1.0,11.0,77,0.00,,,0.00,Wunderground v.1.15,2013-10-29 03:39:00,
2013-10-28 23:45:00,76.5,68.7,31.07,SSW,195,1.0,11.0,77,0.00,,,0.00,Wunderground v.1.15,2013-10-29 03:45:00,
2013-10-28 23:51:00,76.6,68.8,31.07,SSE,165,1.0,11.0,77,0.00,,,0.00,Wunderground v.1.15,2013-10-29 03:51:00,
2013-10-28 23:57:00,76.6,68.8,31.07,SSE,166,1.0,11.0,77,0.00,,,0.00,Wunderground v.1.15,2013-10-29 03:57:00,